PKGKJ WAAA-WAPP

Flight info

Callsign PKGKJ
Flight time N/A
Altitude 41000
Route SUGTA W53 HOLBA
Aircraft CL60/M-SADE3FGHIJ3J4J7P2RWXY/HB1D1

Departure

Time N/A
Airport Sultan Hasanuddin International Airport (WAAA)

Arrival

Time 2026-04-16 16:22
Airport Pattimura International Airport (WAPP)
Time Latitude Longitude Altitude Speed Heading
2026-04-16 15:31 -4.52158 122.78279 40917 ft 430 kts 80°
2026-04-16 15:32 -4.51222 122.84174 40941 ft 430 kts 80°
2026-04-16 15:32 -4.50277 122.90121 40975 ft 431 kts 80°
2026-04-16 15:33 -4.49334 122.96046 41005 ft 431 kts 81°
2026-04-16 15:33 -4.48393 123.01961 41014 ft 431 kts 80°
2026-04-16 15:34 -4.47450 123.07886 40987 ft 431 kts 80°
2026-04-16 15:34 -4.46511 123.13786 40967 ft 431 kts 80°
2026-04-16 15:35 -4.45557 123.19769 40944 ft 431 kts 80°
2026-04-16 15:35 -4.44614 123.25684 40917 ft 430 kts 80°
2026-04-16 15:36 -4.43671 123.31596 40908 ft 430 kts 80°
2026-04-16 15:36 -4.42730 123.37492 40906 ft 430 kts 80°
2026-04-16 15:37 -4.41792 123.43390 40905 ft 430 kts 80°
2026-04-16 15:37 -4.40866 123.49300 40906 ft 430 kts 80°
2026-04-16 15:38 -4.39938 123.55214 40905 ft 430 kts 80°
2026-04-16 15:38 -4.39010 123.61125 40908 ft 430 kts 80°
2026-04-16 15:39 -4.38080 123.67052 40914 ft 431 kts 80°
2026-04-16 15:39 -4.37150 123.72969 40911 ft 431 kts 80°
2026-04-16 15:40 -4.36220 123.78885 40909 ft 430 kts 80°
2026-04-16 15:40 -4.35290 123.84800 40914 ft 430 kts 80°
2026-04-16 15:41 -4.34360 123.90712 40908 ft 430 kts 80°
2026-04-16 15:41 -4.33430 123.96616 40906 ft 430 kts 80°
2026-04-16 15:42 -4.32500 124.02521 40906 ft 430 kts 80°
2026-04-16 15:42 -4.31572 124.08412 40907 ft 429 kts 80°
2026-04-16 15:43 -4.30645 124.14291 40906 ft 429 kts 80°
2026-04-16 15:43 -4.29717 124.20173 40909 ft 429 kts 80°
2026-04-16 15:44 -4.28788 124.26056 40917 ft 429 kts 80°
2026-04-16 15:44 -4.27853 124.31981 40916 ft 429 kts 80°
2026-04-16 15:45 -4.26923 124.37865 40912 ft 429 kts 80°
2026-04-16 15:45 -4.25995 124.43735 40909 ft 429 kts 80°
2026-04-16 15:46 -4.25064 124.49619 40902 ft 428 kts 79°
2026-04-16 15:46 -4.24134 124.55500 40903 ft 429 kts 80°
2026-04-16 15:47 -4.23204 124.61374 40905 ft 429 kts 79°
2026-04-16 15:47 -4.22270 124.67267 40905 ft 429 kts 79°
2026-04-16 15:48 -4.21332 124.73186 40906 ft 429 kts 79°
2026-04-16 15:48 -4.20399 124.79071 40907 ft 428 kts 79°
2026-04-16 15:49 -4.19470 124.84924 40907 ft 428 kts 79°
2026-04-16 15:49 -4.18532 124.90836 40906 ft 428 kts 79°
2026-04-16 15:50 -4.17599 124.96711 40906 ft 428 kts 79°
2026-04-16 15:50 -4.16665 125.02592 40906 ft 428 kts 79°
2026-04-16 15:51 -4.15733 125.08455 40906 ft 428 kts 79°
2026-04-16 15:51 -4.14792 125.14372 40907 ft 428 kts 79°
2026-04-16 15:52 -4.13860 125.20229 40905 ft 428 kts 79°
2026-04-16 15:52 -4.12927 125.26086 40906 ft 427 kts 79°
2026-04-16 15:53 -4.11991 125.31969 40906 ft 427 kts 79°
2026-04-16 15:53 -4.11059 125.37817 40906 ft 427 kts 79°
2026-04-16 15:54 -4.10126 125.43667 40905 ft 427 kts 79°
2026-04-16 15:54 -4.09195 125.49504 40906 ft 426 kts 79°
2026-04-16 15:55 -4.08263 125.55343 40907 ft 426 kts 79°
2026-04-16 15:55 -4.07326 125.61216 40906 ft 426 kts 79°
2026-04-16 15:56 -4.06393 125.67057 40906 ft 426 kts 79°
2026-04-16 15:56 -4.05459 125.72897 40895 ft 426 kts 79°
2026-04-16 15:56 -4.04987 125.75850 40488 ft 432 kts 79°
2026-04-16 15:57 -4.04514 125.78804 40005 ft 435 kts 79°
2026-04-16 15:57 -4.04038 125.81786 39541 ft 432 kts 79°
2026-04-16 15:57 -4.03573 125.84734 39083 ft 431 kts 81°
2026-04-16 15:57 -4.03333 125.87741 38626 ft 431 kts 87°
2026-04-16 15:58 -4.03480 125.90708 38149 ft 434 kts 94°
2026-04-16 15:58 -4.04012 125.93710 37554 ft 437 kts 99°
2026-04-16 15:58 -4.04676 125.96645 36978 ft 438 kts 100°
2026-04-16 15:58 -4.05349 125.99634 36415 ft 439 kts 100°
2026-04-16 15:59 -4.06663 126.05618 35357 ft 442 kts 98°
2026-04-16 15:59 -4.07008 126.08688 34846 ft 442 kts 91°
2026-04-16 15:59 -4.06946 126.11725 34346 ft 442 kts 84°
2026-04-16 16:00 -4.06642 126.14812 33835 ft 444 kts 83°
2026-04-16 16:00 -4.06330 126.17866 33230 ft 447 kts 83°
2026-04-16 16:00 -4.06015 126.20974 32615 ft 450 kts 83°
2026-04-16 16:00 -4.05697 126.24103 32010 ft 453 kts 83°
2026-04-16 16:01 -4.05380 126.27226 31393 ft 457 kts 83°
2026-04-16 16:01 -4.05056 126.30409 30767 ft 460 kts 83°
2026-04-16 16:01 -4.04735 126.33564 30152 ft 463 kts 83°
2026-04-16 16:01 -4.04407 126.36795 29526 ft 463 kts 83°
2026-04-16 16:02 -4.04085 126.39964 28911 ft 461 kts 83°
2026-04-16 16:02 -4.03763 126.43134 28304 ft 460 kts 83°
2026-04-16 16:02 -4.03438 126.46326 27681 ft 458 kts 83°
2026-04-16 16:02 -4.03121 126.49447 27062 ft 454 kts 83°
2026-04-16 16:03 -4.02802 126.52580 26433 ft 451 kts 83°
2026-04-16 16:03 -4.02485 126.55695 25807 ft 447 kts 83°
2026-04-16 16:03 -4.02173 126.58753 25185 ft 444 kts 83°
2026-04-16 16:03 -4.01860 126.61818 24557 ft 441 kts 83°
2026-04-16 16:04 -4.01551 126.64852 23942 ft 438 kts 83°
2026-04-16 16:04 -4.01242 126.67882 23469 ft 434 kts 83°
2026-04-16 16:04 -4.00938 126.70865 22975 ft 433 kts 83°
2026-04-16 16:04 -4.00635 126.73827 22503 ft 431 kts 83°
2026-04-16 16:05 -4.00329 126.76822 22027 ft 428 kts 83°
2026-04-16 16:05 -4.00028 126.79768 21550 ft 425 kts 84°
2026-04-16 16:05 -3.99731 126.82668 21089 ft 421 kts 84°
2026-04-16 16:05 -3.99433 126.85583 20622 ft 418 kts 84°
2026-04-16 16:06 -3.99138 126.88467 20162 ft 414 kts 84°
2026-04-16 16:06 -3.98849 126.91296 19709 ft 410 kts 84°
2026-04-16 16:06 -3.98558 126.94132 19256 ft 406 kts 84°
2026-04-16 16:06 -3.98274 126.96905 18812 ft 403 kts 84°
2026-04-16 16:07 -3.97988 126.99698 18368 ft 399 kts 84°
2026-04-16 16:07 -3.97708 127.02426 17929 ft 396 kts 84°
2026-04-16 16:07 -3.97428 127.05157 17496 ft 393 kts 84°
2026-04-16 16:07 -3.97150 127.07865 17064 ft 390 kts 84°
2026-04-16 16:08 -3.96876 127.10532 16636 ft 388 kts 85°
2026-04-16 16:08 -3.96599 127.13232 16207 ft 387 kts 85°
2026-04-16 16:08 -3.96323 127.15913 15777 ft 386 kts 85°
2026-04-16 16:08 -3.96049 127.18578 15353 ft 385 kts 85°
2026-04-16 16:09 -3.95779 127.21205 14935 ft 384 kts 85°
2026-04-16 16:09 -3.95508 127.23846 14509 ft 382 kts 85°
2026-04-16 16:09 -3.95233 127.26517 14090 ft 382 kts 85°
2026-04-16 16:09 -3.94965 127.29118 13769 ft 379 kts 85°
2026-04-16 16:10 -3.94693 127.31765 13344 ft 382 kts 85°
2026-04-16 16:10 -3.94422 127.34403 12921 ft 378 kts 85°
2026-04-16 16:10 -3.94155 127.36998 12503 ft 377 kts 85°
2026-04-16 16:10 -3.93886 127.39604 12089 ft 375 kts 85°
2026-04-16 16:11 -3.93620 127.42189 11671 ft 373 kts 85°
2026-04-16 16:11 -3.93355 127.44754 11265 ft 371 kts 85°
2026-04-16 16:11 -3.93091 127.47315 10855 ft 370 kts 85°
2026-04-16 16:11 -3.92826 127.49884 10446 ft 368 kts 85°
2026-04-16 16:12 -3.92566 127.52406 10040 ft 367 kts 85°
2026-04-16 16:12 -3.92303 127.54955 9633 ft 365 kts 85°
2026-04-16 16:12 -3.92044 127.57466 9236 ft 363 kts 85°
2026-04-16 16:12 -3.91786 127.59969 8838 ft 361 kts 85°
2026-04-16 16:13 -3.91529 127.62450 8444 ft 358 kts 85°
2026-04-16 16:13 -3.91277 127.64898 8057 ft 355 kts 85°
2026-04-16 16:13 -3.91024 127.67341 7665 ft 352 kts 85°
2026-04-16 16:13 -3.90773 127.69771 7276 ft 349 kts 85°
2026-04-16 16:14 -3.90523 127.72186 6891 ft 346 kts 85°
2026-04-16 16:14 -3.90279 127.74550 6492 ft 333 kts 85°
2026-04-16 16:14 -3.90048 127.76775 6153 ft 309 kts 85°
2026-04-16 16:14 -3.89837 127.78846 5831 ft 289 kts 86°
2026-04-16 16:15 -3.90086 127.80744 5470 ft 271 kts 114°
2026-04-16 16:15 -3.90918 127.82383 5091 ft 259 kts 112°
2026-04-16 16:15 -3.91177 127.84106 4691 ft 252 kts 87°
2026-04-16 16:15 -3.90994 127.85818 4359 ft 245 kts 84°
2026-04-16 16:16 -3.90779 127.87489 4093 ft 239 kts 83°
2026-04-16 16:16 -3.90402 127.89060 3987 ft 227 kts 64°
2026-04-16 16:16 -3.89517 127.90314 4002 ft 216 kts 50°
2026-04-16 16:16 -3.88503 127.91434 3996 ft 214 kts 48°
2026-04-16 16:17 -3.87508 127.92466 4009 ft 196 kts 47°
2026-04-16 16:17 -3.86542 127.93445 3881 ft 199 kts 46°
2026-04-16 16:17 -3.85571 127.94421 3640 ft 194 kts 46°
2026-04-16 16:17 -3.84615 127.95377 3412 ft 193 kts 46°
2026-04-16 16:18 -3.83664 127.96329 3166 ft 191 kts 46°
2026-04-16 16:18 -3.82732 127.97262 2927 ft 190 kts 46°
2026-04-16 16:18 -3.81797 127.98196 2686 ft 189 kts 46°
2026-04-16 16:18 -3.80865 127.99129 2442 ft 189 kts 46°
2026-04-16 16:19 -3.79943 128.00050 2176 ft 177 kts 46°
2026-04-16 16:19 -3.79132 128.00859 2008 ft 159 kts 47°
2026-04-16 16:19 -3.78346 128.01646 1785 ft 159 kts 46°
2026-04-16 16:19 -3.77573 128.02420 1590 ft 156 kts 47°
2026-04-16 16:20 -3.76834 128.03160 1406 ft 140 kts 46°
2026-04-16 16:20 -3.76170 128.03822 1257 ft 132 kts 46°
2026-04-16 16:20 -3.75522 128.04471 1044 ft 129 kts 46°
2026-04-16 16:20 -3.74888 128.05104 890 ft 129 kts 45°
2026-04-16 16:21 -3.74243 128.05739 735 ft 130 kts 45°
2026-04-16 16:21 -3.73610 128.06380 561 ft 128 kts 46°
2026-04-16 16:21 -3.72982 128.07018 396 ft 127 kts 45°
2026-04-16 16:21 -3.72352 128.07640 220 ft 127 kts 45°
2026-04-16 16:22 -3.71736 128.08258 58 ft 123 kts 44°
2026-04-16 16:22 -3.71202 128.08794 66 ft 87 kts 44°
2026-04-16 16:22 -3.70904 128.09091 73 ft 39 kts 45°
2026-04-16 16:22 -3.70804 128.09166 74 ft 12 kts 343°
2026-04-16 16:23 -3.70742 128.09111 78 ft 11 kts 315°
2026-04-16 16:23 -3.70696 128.09049 83 ft 11 kts 282°
2026-04-16 16:23 -3.70698 128.08964 84 ft 13 kts 270°
2026-04-16 16:23 -3.70696 128.08910 84 ft 1 kts 273°
2026-04-16 16:24 -3.70684 128.08890 85 ft 5 kts 343°
2026-04-16 16:24 -3.70648 128.08888 87 ft 5 kts 359°
2026-04-16 16:24 -3.70627 128.08888 88 ft 0 kts 360°
2026-04-16 16:25 -3.70626 128.08888 88 ft 0 kts 360°